Dewpoint
74 74 73 73 73 73 72 72 72 71 71 71 70 70 69 70 70 71 70 70 69 71 71 72 71 71 70 70 70 70 70 70 71 71 71 71 72 72 74 74 74 74 74 74 74 74 74 73 73 73 73 73 73 73 73 73 73 73 73 73 73 73 73 73 73 73 73 73 73 72 72 72 72 72 72 72 72 72 72 72 72 72 72 72 71
74 74 73 72 72 72 72 72 71 71 71 71 71 70 69 69 70 71 71 71 71 71 72 72 72 72 71 71 70 70 70 70 70 71 71 71 71 72 74 74 74 74 74 74 74 74 73 74 73 73 74 74 74 73 73 73 73 73 73 73 73 73 73 73 73 73 73 73 73 72 72 72 72 72 72 72 72 72 73 73 73 73 73 72 72
74 73 73 72 72 72 72 71 71 71 71 72 71 71 70 70 70 70 71 70 71 71 71 71 71 71 71 72 71 71 70 71 71 71 71 71 71 72 72 74 74 74 74 74 74 74 73 73 74 73 73 74 74 74 73 73 73 73 73 73 73 73 73 73 73 73 73 73 73 73 73 72 72 72 72 73 73 73 73 73 73 73 73 72 72
73 73 73 72 72 71 71 70 71 71 72 72 72 72 72 71 71 71 70 70 71 71 71 71 70 70 70 70 71 70 70 70 70 71 71 71 71 71 72 72 73 74 74 75 74 74 72 73 73 73 73 73 74 74 74 73 73 73 73 73 73 73 73 73 73 73 73 73 73 73 73 73 73 73 73 73 73 73 73 73 73 73 73 73 73
73 73 74 72 72 71 70 71 71 71 72 73 71 70 70 70 69 70 71 72 72 72 72 71 70 70 70 70 70 70 70 70 70 70 71 71 71 71 71 72 72 73 74 74 74 73 73 73 73 73 74 73 73 73 74 74 74 73 73 73 73 73 73 73 73 73 73 73 73 73 73 73 73 73 73 73 73 74 74 73 73 73 73 73 73
74 73 72 71 71 70 70 71 71 72 72 71 70 70 69 70 70 70 72 72 70 70 70 70 70 69 69 69 69 70 70 70 70 70 70 70 71 71 71 71 71 71 72 74 75 74 74 73 74 74 74 73 73 73 73 73 74 73 73 73 73 73 73 74 74 73 73 73 73 73 73 73 74 74 73 74 74 74 74 74 74 74 73 73 73
74 73 72 72 71 71 70 71 71 71 71 71 71 71 71 71 72 71 69 68 68 69 69 69 69 68 68 69 69 69 69 69 69 69 70 70 71 71 71 71 71 71 71 72 73 75 74 74 75 75 74 74 74 73 73 73 73 73 74 74 74 73 73 74 74 74 73 74 74 73 73 73 73 74 74 74 74 74 74 74 74 74 74 74 73
73 73 73 72 71 70 70 70 70 71 72 71 72 72 71 71 70 70 68 67 68 68 68 68 68 68 68 68 68 69 68 68 68 68 69 70 70 71 71 71 71 71 73 72 72 74 75 74 73 74 74 74 74 74 74 74 73 74 74 73 74 74 74 74 74 74 74 74 74 74 74 74 74 74 74 74 74 74 74 74 74 74 74 74 74
73 73 71 70 69 70 70 71 72 72 71 70 70 71 69 70 68 69 68 67 67 67 67 67 67 67 67 67 68 68 68 68 67 67 67 67 68 70 70 71 72 74 73 72 72 71 72 73 74 74 74 74 74 74 73 73 73 73 74 74 74 74 74 74 74 74 74 74 74 74 74 74 74 74 74 74 74 74 75 74 74 74 74 74 75
70 71 71 71 70 71 71 72 72 71 70 69 69 69 68 68 67 66 68 66 66 66 66 66 67 67 67 67 67 67 67 67 67 69 68 67 68 68 69 70 71 72 72 72 72 71 71 72 73 73 74 73 73 74 73 73 73 73 73 73 74 74 74 74 75 75 74 74 74 74 74 74 74 74 74 74 75 75 75 75 75 75 75 75 75
71 71 71 71 72 72 71 70 70 69 68 68 68 68 68 67 66 66 67 67 67 67 67 67 67 67 66 66 67 67 67 67 68 67 67 67 67 68 69 70 71 71 72 72 73 71 71 71 71 72 74 73 73 73 73 73 73 73 73 73 73 73 74 74 73 75 75 75 75 74 75 75 74 74 74 74 74 74 75 75 75 75 75 75 75
72 72 72 72 71 70 69 70 69 68 68 68 67 66 67 66 66 66 66 66 67 67 67 66 66 65 66 66 66 66 66 67 67 67 68 67 67 67 67 68 69 70 72 72 72 71 71 71 73 73 74 74 74 74 73 73 72 72 72 73 73 73 73 73 74 74 74 75 75 75 75 75 75 74 74 74 74 74 74 75 75 75 75 75 75
73 71 71 72 70 69 68 68 69 69 69 68 68 67 66 66 66 67 67 65 64 65 65 66 64 63 62 63 64 65 66 66 66 66 67 67 67 66 66 67 68 69 71 72 72 72 72 72 72 73 73 73 74 74 73 73 73 73 73 73 74 73 73 74 73 74 73 75 75 75 75 74 74 75 75 75 74 74 74 74 74 75 75 75 75
73 71 71 70 70 69 68 68 68 69 69 68 67 69 68 67 66 65 66 65 64 64 65 64 62 61 62 63 61 62 64 65 66 64 64 65 66 66 65 65 66 68 69 69 69 71 72 72 72 71 71 72 72 73 74 73 73 73 73 74 74 72 72 73 73 73 73 74 74 75 75 74 74 74 75 75 74 74 74 74 74 74 75 75 75
73 72 71 70 70 69 70 69 68 69 68 67 67 67 66 66 66 65 64 64 65 66 65 64 62 62 63 61 56 60 62 62 64 63 64 64 65 66 68 66 68 69 68 68 69 69 70 71 71 72 72 72 72 72 73 74 74 74 74 73 74 74 74 73 72 72 73 73 74 74 74 75 74 74 74 74 74 74 74 74 74 74 74 75 75
72 72 71 71 70 70 70 69 69 69 68 67 66 66 65 65 65 65 64 63 61 62 67 66 64 63 60 60 59 61 59 57 60 63 65 64 64 65 67 67 67 67 68 67 68 68 69 69 70 70 71 71 72 72 72 73 74 74 73 73 73 73 73 73 73 74 74 73 74 74 73 74 74 74 75 74 74 74 74 74 74 74 74 74 74
72 72 73 71 70 69 68 69 68 67 68 67 66 67 66 65 64 65 64 63 61 62 65 66 64 64 63 62 58 58 58 59 61 60 63 63 64 65 66 65 65 67 66 66 68 68 69 69 69 69 70 70 70 71 72 72 73 74 74 74 73 73 73 73 73 74 73 74 74 74 73 73 74 75 75 75 75 74 74 74 74 74 74 74 74
69 70 71 69 68 68 68 67 67 68 69 67 66 66 65 65 64 64 63 63 63 63 62 64 66 66 64 63 61 58 58 60 59 56 62 63 63 65 64 65 64 65 65 65 66 67 69 69 69 69 70 70 70 70 70 71 72 72 72 73 74 74 74 73 73 74 74 73 74 74 74 73 74 74 75 75 75 75 74 74 74 74 74 74 74
68 68 69 69 68 67 66 66 66 66 69 66 67 66 64 64 65 64 64 66 65 62 62 63 63 64 66 64 63 64 63 61 58 59 57 58 61 62 62 64 64 64 64 64 65 66 66 68 68 69 69 70 70 70 70 70 72 73 73 74 74 74 74 74 73 73 74 74 74 74 74 74 74 74 74 75 75 75 75 74 74 74 74 74 74
67 67 68 69 68 66 66 67 66 66 68 65 65 65 65 66 68 66 66 67 65 63 63 62 63 63 66 65 64 65 65 63 62 60 60 59 59 60 62 62 62 62 63 63 64 64 64 65 65 66 68 68 69 70 70 70 70 70 71 72 73 73 74 73 73 73 74 73 73 73 73 73 73 73 74 74 75 75 75 75 74 74 73 74 74
66 67 67 68 69 66 66 66 66 66 67 66 65 65 64 64 65 67 66 67 67 66 64 64 62 63 62 61 62 62 63 64 63 61 61 59 59 58 58 61 61 61 62 63 63 64 64 64 65 66 67 67 68 69 70 70 70 70 72 72 72 73 73 73 73 73 73 72 73 73 73 73 73 73 74 75 74 74 74 75 75 74 74 74 74
65 65 66 67 68 67 66 65 65 66 67 64 63 63 63 63 64 64 65 66 66 67 66 65 64 63 62 62 61 60 58 59 61 62 62 62 60 59 60 59 59 60 61 61 61 62 62 63 63 64 65 65 66 67 68 69 70 70 71 72 72 73 73 72 73 72 73 72 73 73 73 73 73 73 73 73 74 74 74 74 75 75 75 75 74
66 65 65 66 67 67 65 65 66 69 67 63 63 63 63 63 63 63 64 63 62 64 66 66 65 63 62 62 61 61 59 58 58 59 58 57 58 59 58 59 59 59 59 61 62 61 62 62 62 63 64 64 65 66 67 68 70 71 71 72 72 72 72 72 72 72 72 73 73 74 74 73 73 73 73 73 73 74 74 75 75 75 75 75 75
63 63 65 66 67 66 66 65 67 66 64 64 64 64 64 63 63 62 62 62 62 65 63 62 62 62 62 62 62 62 61 59 60 59 59 58 58 58 58 57 58 59 60 60 60 60 60 60 61 62 63 64 65 66 67 67 68 67 67 68 70 70 71 71 72 72 72 72 72 73 73 74 73 74 73 74 73 73 74 74 75 75 75 75 75
62 64 65 65 66 65 65 65 66 66 64 64 64 64 64 64 63 63 62 61 62 63 62 62 61 61 61 61 61 61 61 60 61 59 59 58 59 56 56 58 57 57 57 57 58 58 59 60 60 61 62 63 64 64 64 64 64 64 63 65 65 66 68 70 70 70 71 71 71 72 73 73 73 73 73 73 73 73 73 73 74 74 75 75 74
63 64 64 65 66 65 66 64 64 65 65 64 64 64 64 63 63 63 62 62 61 62 62 61 61 62 61 61 61 61 61 61 60 60 59 59 57 56 57 57 55 56 55 55 56 56 56 59 59 60 61 61 62 62 61 60 60 62 62 61 62 64 65 66 68 69 69 70 70 71 71 72 72 72 73 73 73 73 74 74 75 74 74 74 74
64 64 65 65 65 65 65 64 65 64 66 65 66 64 65 64 64 63 63 62 62 63 62 62 62 62 61 62 62 60 61 61 60 60 59 59 58 57 58 56 54 54 54 54 54 54 54 57 59 57 59 61 59 59 58 58 60 61 62 59 59 62 63 64 65 67 68 69 69 69 70 70 71 71 72 72 72 73 74 74 74 75 74 74 74
64 64 65 64 64 64 65 65 64 64 64 64 64 64 63 63 62 63 63 65 63 62 62 61 62 61 61 60 60 61 62 61 61 60 60 60 60 58 57 56 54 51 51 51 51 52 54 55 57 58 58 57 57 57 59 59 57 61 61 59 58 59 62 63 64 64 65 67 68 68 68 69 69 69 70 71 71 71 72 72 73 73 73 73 74
63 65 64 64 63 63 64 64 63 63 63 64 64 63 62 62 63 61 62 62 64 63 62 62 62 62 61 61 61 61 61 61 61 62 60 60 59 58 58 56 55 54 51 50 49 50 53 55 55 56 57 56 56 57 57 56 58 59 58 58 58 58 60 62 63 63 64 65 65 66 67 68 68 68 68 69 69 70 71 71 71 72 72 72 73
63 65 64 63 63 67 63 62 62 62 63 63 63 63 63 62 62 62 62 62 62 63 63 62 61 61 62 61 61 61 62 61 61 61 61 60 58 58 57 57 57 56 55 52 50 52 52 54 56 55 55 55 56 56 57 56 59 58 58 58 57 57 60 61 62 63 63 63 64 64 65 66 67 67 67 67 68 68 69 70 70 70 71 71 72
65 63 63 63 63 63 63 62 62 63 63 63 64 63 63 62 62 63 63 62 62 62 62 63 63 62 62 61 61 61 61 61 61 60 61 60 59 57 57 55 57 57 55 54 52 54 55 53 54 55 54 55 56 56 56 56 58 58 58 57 56 59 61 61 61 61 61 62 63 63 64 64 65 66 66 66 67 67 68 69 69 70 70 71 71
64 63 63 63 63 62 63 63 63 62 62 62 62 62 62 62 62 63 63 62 62 62 62 62 63 63 62 62 62 61 61 60 60 60 60 60 59 57 57 57 56 56 55 55 54 52 54 54 54 55 56 56 56 56 55 55 56 59 56 56 56 60 58 58 60 61 61 61 62 63 63 63 64 65 66 66 66 67 68 68 68 68 69 70 70
63 63 62 62 62 62 62 63 62 61 61 61 61 61 61 62 62 62 62 61 62 62 63 62 62 62 63 62 62 62 61 60 60 60 60 59 59 58 58 56 55 55 55 55 54 53 53 55 55 55 56 56 55 55 55 54 54 54 57 56 56 56 57 57 58 61 61 61 61 62 62 63 64 65 65 66 66 67 67 68 67 67 68 68 68
63 62 62 62 62 62 61 61 62 61 61 61 61 61 62 62 62 62 62 62 62 62 61 61 62 62 62 62 62 61 61 60 59 59 59 59 58 58 57 57 56 55 56 55 54 54 52 54 55 56 56 56 55 56 55 55 54 55 55 55 56 56 57 57 58 59 61 61 61 61 62 62 63 64 64 65 66 66 66 67 66 66 66 66 67
63 62 62 61 62 61 61 61 61 61 61 61 62 61 62 62 62 62 62 62 62 61 61 61 61 61 61 62 62 61 61 60 60 59 59 58 58 57 56 56 56 55 56 56 55 53 53 53 55 55 56 56 56 56 56 55 56 55 54 55 55 56 57 57 57 58 61 61 61 61 61 62 63 63 64 65 65 65 65 65 65 65 65 65 65
61 62 62 61 61 61 61 61 62 61 62 62 62 62 62 62 62 61 61 62 62 62 61 61 61 61 61 61 61 61 61 60 59 59 59 59 58 58 57 56 56 55 55 56 56 55 54 54 55 56 56 56 57 57 57 56 55 54 54 54 55 55 55 56 57 57 59 60 61 61 62 62 62 62 63 63 63 63 63 63 63 64 64 63 64
61 61 62 63 61 61 61 61 61 61 62 62 62 62 62 62 62 62 62 61 61 61 61 61 63 62 61 61 61 61 60 59 59 58 58 58 58 57 57 56 56 56 56 56 56 56 56 55 55 56 57 57 57 57 56 54 53 53 54 54 54 54 55 55 57 58 60 61 61 61 62 62 62 62 62 63 63 63 63 62 62 62 62 63 63
61 61 61 61 62 62 61 61 61 61 61 62 62 62 62 62 62 62 62 62 62 62 61 61 61 61 61 61 61 61 60 59 59 59 58 58 57 57 57 57 56 56 56 57 57 57 56 56 56 55 57 57 57 56 55 54 53 52 52 53 54 54 54 54 54 55 57 58 58 59 61 63 63 63 63 63 63 63 63 62 62 61 61 61 60
60 60 61 61 62 62 62 62 62 62 61 61 61 62 62 62 62 62 62 62 62 62 62 62 62 62 62 61 61 61 60 60 59 59 59 58 58 57 58 57 57 56 56 56 56 55 56 55 56 56 57 57 57 55 55 54 53 53 52 52 52 53 53 53 53 54 56 57 59 60 61 61 62 63 63 63 63 63 63 62 61 60 60 59 59
61 60 60 61 60 62 62 61 61 61 61 61 61 61 61 61 61 61 61 62 62 61 62 62 62 62 62 62 62 62 61 60 60 59 59 58 58 58 58 58 58 57 57 57 56 56 56 56 56 56 57 57 56 56 55 54 52 52 53 52 52 52 52 53 53 54 55 56 56 57 59 60 61 63 62 63 64 64 63 63 63 62 61 60 59
61 60 60 60 59 60 61 61 61 62 62 61 60 59 59 59 60 60 61 61 61 61 61 61 62 62 62 62 62 62 63 63 61 60 60 59 58 58 58 58 58 57 56 56 56 56 56 56 57 57 57 56 56 55 54 53 51 51 52 53 53 53 52 52 52 54 55 55 56 57 58 59 61 63 65 66 66 65 65 64 65 65 63 60 59
60 60 59 59 59 59 59 60 60 61 60 60 62 62 62 60 60 60 61 61 61 61 62 62 62 62 62 62 63 64 63 61 61 60 59 58 58 59 59 58 57 56 56 56 55 56 56 57 57 57 56 56 55 55 54 53 53 52 53 53 52 52 51 51 52 53 55 56 56 57 58 60 61 62 64 66 67 67 67 66 66 65 64 62 61
59 59 60 59 59 59 59 59 59 60 60 61 62 60 61 63 62 60 60 61 61 62 62 62 62 62 62 61 61 62 64 63 63 61 60 59 59 58 57 57 57 58 56 56 56 56 57 57 57 56 56 56 56 56 55 54 53 53 53 53 52 52 51 51 51 52 55 56 56 57 57 59 61 62 64 65 67 67 67 67 66 65 63 62 62
59 59 60 59 60 60 60 60 60 60 60 61 59 59 60 61 62 62 61 61 61 61 61 62 62 62 61 61 61 61 61 61 61 60 60 60 59 58 58 57 57 56 57 58 58 58 58 57 56 56 56 56 56 56 55 54 54 53 53 52 52 52 51 51 51 51 53 56 56 55 55 57 58 59 61 64 66 67 68 66 65 64 63 62 62
59 60 60 60 60 60 60 60 60 60 60 61 59 59 59 59 59 61 61 61 61 61 60 61 61 61 60 61 61 61 60 62 63 61 60 60 59 58 57 57 57 56 57 57 57 59 59 58 58 57 57 57 56 56 56 55 55 54 53 53 52 51 51 51 51 51 53 55 57 57 56 56 58 59 60 62 65 67 68 66 65 64 63 62 62
60 60 60 60 60 60 60 60 60 61 61 60 59 58 58 58 59 60 59 59 59 60 60 60 60 60 60 60 60 60 60 59 60 60 59 58 58 58 58 57 58 58 57 57 56 56 57 59 59 58 58 58 57 57 57 56 55 54 53 52 51 51 51 51 52 52 53 55 56 56 56 56 57 59 60 61 65 66 67 66 64 63 63 62 62
60 60 60 60 60 61 61 61 61 61 61 60 58 57 56 56 57 59 58 59 59 59 59 59 59 60 59 60 59 59 59 59 60 60 59 58 57 57 57 57 57 58 59 59 59 59 59 59 59 58 58 57 56 56 56 57 56 54 54 53 52 52 53 53 53 54 54 56 56 57 54 55 56 57 58 59 62 65 67 65 64 63 63 62 61
60 60 60 60 60 61 62 62 61 61 61 57 57 57 56 56 57 59 57 57 57 58 58 59 59 58 58 58 59 58 59 59 59 58 59 59 58 57 57 58 58 59 58 56 56 57 58 58 57 57 57 57 55 57 58 56 55 54 54 55 54 54 54 54 53 54 55 55 58 57 56 55 56 57 57 59 63 65 67 68 64 62 62 61 62
59 60 60 60 61 61 61 61 61 60 59 58 55 54 54 54 55 56 56 56 56 57 57 57 56 57 58 59 59 60 60 59 59 57 57 56 58 58 58 57 57 56 55 56 56 55 54 53 52 52 53 53 53 53 52 52 55 54 55 54 53 53 53 52 52 53 53 54 57 58 57 56 56 57 57 59 61 63 66 68 68 63 62 61 61
59 59 60 61 61 62 61 60 60 59 59 58 55 54 53 54 56 55 55 55 55 56 56 56 56 57 58 62 62 61 60 60 58 57 57 58 58 57 57 55 54 54 54 55 54 54 53 53 53 53 53 54 54 53 53 53 53 53 55 53 54 54 53 53 53 53 53 54 55 58 57 56 56 58 58 59 62 64 65 67 68 68 63 60 60
60 60 62 61 60 59 60 60 62 61 58 56 55 54 53 53 56 55 55 55 54 55 55 56 57 58 58 60 60 59 58 58 54 53 55 56 58 56 54 54 53 53 53 53 52 52 53 53 54 55 55 54 56 56 57 54 54 54 56 56 56 55 53 54 54 54 53 54 55 58 56 56 56 57 59 59 60 63 66 67 67 68 67 65 64